MES1321 KPNS-KMEM

Flight info

Callsign MES1321
Flight time N/A
Altitude 32000
Route KPNS 17 DCT FASON MONAA4 KMEM GRIIT R27
Aircraft RJ85/M-V/N

Departure

Time 2026-04-21 04:40
Airport Pensacola International Airport (KPNS)

Arrival

Time N/A
Airport Memphis International Airport (KMEM)
Time Latitude Longitude Altitude Speed Heading
2026-04-21 04:25 30.47525 -87.19351 129 ft 0 kts 28°
2026-04-21 04:29 30.47523 -87.19352 129 ft 1 kts 28°
2026-04-21 04:29 30.47509 -87.19361 129 ft 3 kts 29°
2026-04-21 04:30 30.47494 -87.19371 129 ft 3 kts 27°
2026-04-21 04:30 30.47477 -87.19375 129 ft 3 kts 346°
2026-04-21 04:30 30.47463 -87.19362 129 ft 3 kts 303°
2026-04-21 04:30 30.47452 -87.19343 129 ft 3 kts 300°
2026-04-21 04:31 30.47442 -87.19323 129 ft 2 kts 302°
2026-04-21 04:31 30.47438 -87.19316 129 ft 0 kts 302°
2026-04-21 04:33 30.47439 -87.19317 129 ft 1 kts 302°
2026-04-21 04:34 30.47450 -87.19323 129 ft 3 kts
2026-04-21 04:34 30.47459 -87.19299 129 ft 6 kts 124°
2026-04-21 04:34 30.47412 -87.19273 129 ft 9 kts 140°
2026-04-21 04:34 30.47402 -87.19189 129 ft 13 kts 78°
2026-04-21 04:35 30.47417 -87.19130 129 ft 7 kts 66°
2026-04-21 04:35 30.47425 -87.19059 129 ft 11 kts 91°
2026-04-21 04:35 30.47481 -87.19008 129 ft 13 kts 343°
2026-04-21 04:35 30.47581 -87.19038 129 ft 17 kts 348°
2026-04-21 04:36 30.47704 -87.19068 129 ft 20 kts 349°
2026-04-21 04:36 30.47844 -87.19106 129 ft 22 kts 343°
2026-04-21 04:36 30.48003 -87.19146 129 ft 25 kts 349°
2026-04-21 04:36 30.48167 -87.19188 129 ft 19 kts 346°
2026-04-21 04:37 30.48257 -87.19177 129 ft 6 kts 68°
2026-04-21 04:37 30.48259 -87.19167 129 ft 0 kts 77°
2026-04-21 04:38 30.48271 -87.19111 129 ft 14 kts 75°
2026-04-21 04:39 30.48247 -87.19051 129 ft 8 kts 164°
2026-04-21 04:39 30.48149 -87.19026 129 ft 30 kts 168°
2026-04-21 04:39 30.47730 -87.18914 129 ft 92 kts 167°
2026-04-21 04:39 30.47029 -87.18731 130 ft 137 kts 167°
2026-04-21 04:40 30.46430 -87.18577 171 ft 156 kts 167°
2026-04-21 04:40 30.45376 -87.18325 735 ft 152 kts 169°
2026-04-21 04:40 30.44355 -87.18069 1321 ft 153 kts 165°
2026-04-21 04:40 30.43310 -87.17732 1769 ft 163 kts 164°
2026-04-21 04:41 30.42172 -87.17388 2153 ft 174 kts 163°
2026-04-21 04:41 30.41134 -87.16686 2503 ft 176 kts 127°
2026-04-21 04:41 30.40723 -87.15394 2902 ft 173 kts 89°
2026-04-21 04:41 30.41122 -87.14129 3293 ft 171 kts 52°
2026-04-21 04:42 30.42151 -87.13460 3687 ft 176 kts 14°
2026-04-21 04:42 30.43373 -87.13685 4100 ft 184 kts 343°
2026-04-21 04:42 30.44528 -87.14368 4517 ft 188 kts 335°
2026-04-21 04:42 30.45660 -87.15136 4917 ft 189 kts 334°
2026-04-21 04:43 30.46797 -87.15925 5289 ft 192 kts 334°
2026-04-21 04:43 30.47960 -87.16733 5635 ft 197 kts 334°
2026-04-21 04:43 30.49142 -87.17544 6125 ft 200 kts 335°
2026-04-21 04:43 30.50401 -87.18290 6562 ft 206 kts 339°
2026-04-21 04:44 30.51735 -87.18923 6971 ft 209 kts 343°
2026-04-21 04:44 30.53117 -87.19459 7379 ft 210 kts 347°
2026-04-21 04:44 30.54531 -87.19928 7785 ft 212 kts 349°
2026-04-21 04:44 30.55965 -87.20349 8188 ft 213 kts 350°
2026-04-21 04:45 30.57411 -87.20737 8588 ft 214 kts 351°
2026-04-21 04:45 30.58873 -87.21106 8990 ft 215 kts 351°
2026-04-21 04:45 30.60342 -87.21462 9396 ft 216 kts 351°
2026-04-21 04:45 30.61823 -87.21809 9796 ft 218 kts 351°
2026-04-21 04:46 30.63336 -87.22157 9947 ft 224 kts 351°
2026-04-21 04:46 30.64873 -87.22506 9994 ft 225 kts 351°
2026-04-21 04:46 30.66410 -87.22853 10004 ft 224 kts 351°
2026-04-21 04:46 30.67914 -87.23192 10007 ft 225 kts 351°
2026-04-21 04:47 30.69531 -87.23551 10027 ft 249 kts 351°
2026-04-21 04:47 30.71271 -87.23936 10455 ft 262 kts 350°
2026-04-21 04:47 30.73109 -87.24342 10967 ft 275 kts 349°
2026-04-21 04:47 30.75028 -87.24766 11479 ft 285 kts 349°
2026-04-21 04:48 30.77009 -87.25205 11988 ft 291 kts 348°
2026-04-21 04:48 30.79008 -87.25650 12490 ft 294 kts 348°
2026-04-21 04:48 30.81034 -87.26101 12994 ft 296 kts 348°
2026-04-21 04:48 30.83064 -87.26554 13495 ft 298 kts 348°
2026-04-21 04:49 30.85104 -87.27008 13996 ft 299 kts 348°
2026-04-21 04:49 30.87156 -87.27466 14498 ft 301 kts 348°
2026-04-21 04:49 30.89219 -87.27926 15000 ft 302 kts 348°
2026-04-21 04:49 30.91268 -87.28383 15495 ft 304 kts 348°
2026-04-21 04:50 30.93384 -87.28854 16004 ft 306 kts 348°
2026-04-21 04:50 30.94244 -87.29046 16210 ft 307 kts 347°
2026-04-21 04:50 30.96350 -87.29516 16711 ft 310 kts 347°